Starlink 32789

operational
NORAD ID: 62529 Int'l Des: 2025-004 Owner: SPXS Country: US Constellation: starlink
LEOCIRCULAR

About Starlink 32789

Description loading...

Live Position

Loading 3D Globe...

Upcoming Passes

Altitude History

Altitude vs Time

uPlot chart will show altitude changes over time

Two-Line Element Set

1 62529U 25004U 25307.46972506 .00005478 00000-0 20839-3 0 9990
2 62529 43.0021 212.8055 0001373 265.4972 94.5723 15.27588152 47159
Epoch: Nov 3, 2025 • Age: 27 hours

Current Status

Altitude 482.5 km
Velocity 7.63 km/s
Sub-Earth Point 17.40°N, 29°W
Launch Date Jan 8, 2025
Age 0.8 years
Type internet

Technical Details

Classification Payload
Mass 730.00 kg
Dry Mass 700.00 kg
Total Mass 730.00 kg
Length 0.30 m
Diameter 4.10 m
Span 29.00 m
Shape Box + pan
Manufacturer SPXS
Bus Type Starlink V2M
Phase Status In Orbit
Owner/State SPXS/US

Large Constellations

Loading constellations...